User: anonymous   Login
Location: Newark
(45.8667°N, 9.7333°E)
Time: 06:41:04
(UTC+00:00)
Language:

Transit 2A Rocket - Orbit

View from above orbital plane
View from above orbital plane
View from above satellite
View from above satellite

Ground track
Ground track

The orbit data is extracted from the following two-line orbital elements,

1    47U 60007C   20023.50285938 -.00000062  00000-0  11079-4 0  9992
2    47  66.6646 185.2665 0222265  48.7581 313.2439 14.42069441114086
Epoch (UTC): 23 January 2020 12:04:07
Eccentricity: 0.0222265
inclination: 66.6646°
perigee height: 593 km
apogee height: 910 km
right ascension of ascending node: 185.2665°
argument of perigee: 48.7581°
revolutions per day: 14.42069441
mean anomaly at epoch: 313.2439°
orbit number at epoch: 11408

The dashed part of the orbit path shows where the satellite is in the earth's shadow,  

DLR